Luxor, Egypt

4:28 PM EET on September 19, 2017 (GMT +0200)
Luxor

Weather History for HELX - February, 2013

Change the Weather History Date:

Tuesday, February 19, 2013

  Actual Average Record
Temperature  
Mean Temperature 62 °F -  
Max Temperature 77 °F 78 °F 92 °F (2016)
Min Temperature 47 °F 51 °F 34 °F (2017)
Degree Days  
Heating Degree Days 3    
Growing Degree Days 12 (Base 50)    
Moisture  
Dew Point 41 °F    
Average Humidity 47    
Maximum Humidity 71    
Minimum Humidity 20    
Precipitation  
Precipitation 0.00 in 0.00 in - ()
Sea Level Pressure  
Sea Level Pressure 30.00 in    
Wind  
Wind Speed 3 mph ()    
Max Wind Speed 9 mph    
Max Gust Speed -    
Visibility 6.0 miles    
Events      
Averages and records for this station are not official NWS values.
T = Trace of Precipitation, MM = Missing Value Source: Averaged Metar Reports

Daily Weather History Graph

Daily Weather History Graph

Search for Another Location

Airport or City:

Trip Planner

Search our weather history database for the weather conditions in past years. The results will help you decide how hot, cold, wet, or windy it might be!

Date:

Astronomy

Feb. 19, 2013 Rise Set
Actual Time 6:21 AM EET 5:45 PM EET
Civil Twilight 5:57 AM EET 6:08 PM EET
Nautical Twilight 5:30 AM EET 6:35 PM EET
Astronomical Twilight 5:04 AM EET 7:02 PM EET
Moon 12:18 PM EET 1:18 AM EET
Length of Visible Light 12h 10m
Length of Day
11h 24m
Waxing Gibbous, 64% of the Moon is Illuminated
Feb 19
Waxing Gibbous
Feb 25
Full
Mar 4
Last Quarter
Mar 11
New
Mar 19
First Quarter

Hourly Weather History & Observations

Time (EET) Temp. Dew Point Humidity Pressure Visibility Wind Dir Wind Speed Gust Speed Precip Events Conditions
12:00 AM 57.2 °F 39.2 °F 51% 29.98 in - SSE 2.3 mph - N/A   Clear
1:00 AM 55.4 °F 37.4 °F 51% 29.98 in - SSE 2.3 mph - N/A   Clear
2:00 AM 53 °F 38 °F 45% 29.99 in 6 mi SSE 2.3 mph - -  
2:00 AM 53.6 °F 37.4 °F 54% 29.98 in - SSE 2.3 mph - N/A   Clear
3:00 AM 51.8 °F 37.4 °F 58% 29.98 in - Calm Calm - N/A   Clear
4:00 AM 50.0 °F 39.2 °F 66% 29.98 in - Calm Calm - N/A   Clear
5:00 AM 50.0 °F 39.2 °F 66% 30.01 in - South 2.3 mph - N/A   Clear
6:00 AM 50.0 °F 41.0 °F 71% 30.01 in - Calm Calm - N/A   Clear
7:00 AM 50.0 °F 41.0 °F 71% 30.04 in - Calm Calm - N/A   Clear
8:00 AM 58 °F 44 °F 50% 30.06 in 6 mi NW 4.6 mph - -  
8:00 AM 59.0 °F 44.6 °F 59% 30.04 in - NW 4.6 mph - N/A   Clear
9:00 AM 62.6 °F 44.6 °F 52% 30.06 in - North 3.5 mph - N/A   Clear
10:00 AM 66.2 °F 46.4 °F 49% 30.04 in - NNW 6.9 mph - N/A   Clear
11:00 AM 68.0 °F 44.6 °F 43% 30.04 in - NNW 6.9 mph - N/A   Clear
12:00 PM 69.8 °F 44.6 °F 40% 30.01 in - NW 6.9 mph - N/A   Clear
1:00 PM 73.4 °F 44.6 °F 36% 29.98 in - NW 6.9 mph - N/A   Clear
2:00 PM 75 °F 42 °F 20% 29.98 in 6 mi NNW 9.2 mph - -  
2:00 PM 75.2 °F 42.8 °F 31% 29.98 in - NNW 9.2 mph - N/A   Clear
3:00 PM 77.0 °F 41.0 °F 28% 29.98 in - NW 5.8 mph - N/A   Clear
4:00 PM 77.0 °F 41.0 °F 28% 29.95 in - NW 8.1 mph - N/A   Clear
5:00 PM 75.2 °F 37.4 °F 25% 29.98 in - NW 6.9 mph - N/A   Clear
6:00 PM 69.8 °F 41.0 °F 35% 29.98 in - West 5.8 mph - N/A   Clear
7:00 PM 66.2 °F 41.0 °F 40% 29.98 in - WSW 4.6 mph - N/A   Clear
8:00 PM 63 °F 43 °F 37% 30.01 in 6 mi SW 3.5 mph - -  
8:00 PM 62.6 °F 42.8 °F 48% 30.01 in - SW 3.5 mph - N/A   Clear
9:00 PM 60.8 °F 42.8 °F 52% 30.01 in - West 2.3 mph - N/A   Clear
10:00 PM 60.8 °F 42.8 °F 52% 30.01 in - SW 3.5 mph - N/A   Clear
11:00 PM 59.0 °F 41.0 °F 51% 30.04 in - SSE 4.6 mph - N/A   Clear